QPF
0.03 0.03 0.03 0.02 0.01 0.00 0.00 0.00 0.00 0.00 0.00 0.00 0.00 0.00 0.00 0.00 0.00 0.00 0.00 0.00 0.00 0.00 0.00 0.00 0.00 0.00 0.00 0.00 0.00 0.00 0.00 0.00 0.00 0.00 0.00 0.00 0.00 0.00 0.00 0.00 0.00 0.00 0.00 0.00
0.02 0.02 0.01 0.00 0.00 0.01 0.01 0.00 0.00 0.00 0.00 0.00 0.00 0.00 0.00 0.00 0.00 0.00 0.00 0.00 0.00 0.00 0.00 0.00 0.00 0.00 0.00 0.00 0.00 0.00 0.00 0.00 0.00 0.00 0.00 0.00 0.00 0.00 0.00 0.00 0.00 0.00 0.00 0.00
0.02 0.01 0.00 0.01 0.01 0.01 0.01 0.00 0.00 0.00 0.00 0.00 0.00 0.00 0.00 0.00 0.00 0.00 0.00 0.00 0.00 0.00 0.00 0.00 0.00 0.00 0.00 0.00 0.00 0.00 0.00 0.00 0.00 0.00 0.00 0.00 0.00 0.00 0.00 0.00 0.00 0.00 0.00 0.00
0.02 0.00 0.00 0.01 0.01 0.01 0.01 0.00 0.00 0.01 0.01 0.02 0.01 0.00 0.00 0.00 0.00 0.00 0.00 0.00 0.00 0.00 0.00 0.00 0.00 0.00 0.00 0.00 0.00 0.00 0.00 0.00 0.00 0.00 0.00 0.00 0.00 0.00 0.00 0.00 0.00 0.00 0.01 0.01
0.04 0.01 0.00 0.00 0.00 0.00 0.00 0.00 0.01 0.01 0.02 0.03 0.02 0.01 0.00 0.00 0.00 0.00 0.00 0.00 0.00 0.00 0.00 0.00 0.00 0.00 0.00 0.00 0.00 0.00 0.00 0.00 0.00 0.00 0.00 0.00 0.00 0.00 0.00 0.00 0.00 0.00 0.00 0.01
0.02 0.01 0.01 0.00 0.00 0.00 0.00 0.01 0.02 0.03 0.05 0.05 0.01 0.01 0.00 0.00 0.00 0.00 0.00 0.00 0.00 0.00 0.00 0.00 0.00 0.00 0.00 0.00 0.00 0.00 0.00 0.00 0.00 0.00 0.00 0.00 0.00 0.00 0.00 0.00 0.00 0.00 0.00 0.00
0.06 0.02 0.01 0.00 0.01 0.01 0.01 0.02 0.07 0.11 0.11 0.04 0.00 0.00 0.00 0.00 0.00 0.00 0.00 0.00 0.00 0.00 0.00 0.00 0.00 0.00 0.00 0.00 0.00 0.00 0.00 0.00 0.00 0.00 0.00 0.00 0.00 0.00 0.00 0.00 0.00 0.00 0.00 0.00
0.09 0.05 0.01 0.00 0.01 0.01 0.01 0.01 0.04 0.05 0.02 0.00 0.00 0.00 0.00 0.00 0.00 0.00 0.00 0.00 0.00 0.00 0.00 0.00 0.00 0.00 0.00 0.00 0.00 0.00 0.00 0.00 0.00 0.00 0.00 0.00 0.00 0.00 0.00 0.00 0.00 0.00 0.00 0.00
0.03 0.02 0.01 0.00 0.00 0.00 0.00 0.01 0.01 0.01 0.01 0.00 0.00 0.00 0.00 0.00 0.00 0.00 0.00 0.00 0.00 0.00 0.00 0.00 0.00 0.00 0.00 0.00 0.00 0.00 0.00 0.00 0.00 0.00 0.00 0.00 0.00 0.00 0.00 0.00 0.00 0.00 0.00 0.00
0.00 0.01 0.00 0.00 0.00 0.00 0.00 0.01 0.02 0.03 0.03 0.01 0.00 0.00 0.00 0.00 0.00 0.00 0.00 0.00 0.00 0.00 0.00 0.00 0.00 0.00 0.00 0.00 0.00 0.00 0.00 0.00 0.00 0.00 0.00 0.00 0.00 0.00 0.00 0.00 0.00 0.00 0.00 0.00
0.00 0.00 0.01 0.01 0.01 0.01 0.01 0.01 0.02 0.03 0.02 0.00 0.00 0.00 0.00 0.00 0.00 0.00 0.00 0.00 0.00 0.00 0.00 0.00 0.00 0.00 0.00 0.00 0.00 0.00 0.00 0.00 0.00 0.00 0.00 0.00 0.00 0.00 0.00 0.00 0.00 0.00 0.00 0.00
0.01 0.01 0.01 0.01 0.01 0.00 0.00 0.00 0.01 0.02 0.02 0.00 0.00 0.00 0.00 0.00 0.00 0.00 0.00 0.00 0.00 0.00 0.00 0.00 0.00 0.00 0.00 0.00 0.00 0.00 0.00 0.00 0.00 0.00 0.00 0.00 0.00 0.00 0.00 0.00 0.00 0.00 0.00 0.00
0.01 0.01 0.04 0.06 0.04 0.02 0.01 0.00 0.00 0.00 0.00 0.00 0.00 0.00 0.00 0.00 0.00 0.00 0.00 0.00 0.00 0.00 0.00 0.00 0.00 0.00 0.00 0.00 0.00 0.00 0.00 0.00 0.00 0.00 0.00 0.00 0.00 0.00 0.00 0.00 0.00 0.00 0.00 0.00
0.00 0.01 0.01 0.02 0.02 0.01 0.01 0.00 0.00 0.00 0.01 0.00 0.00 0.00 0.00 0.00 0.00 0.00 0.00 0.00 0.00 0.00 0.00 0.00 0.00 0.00 0.00 0.00 0.00 0.00 0.00 0.00 0.00 0.00 0.00 0.00 0.00 0.00 0.00 0.00 0.00 0.00 0.00 0.00
0.01 0.02 0.01 0.00 0.00 0.00 0.00 0.00 0.00 0.00 0.00 0.00 0.00 0.00 0.00 0.00 0.00 0.00 0.00 0.00 0.00 0.00 0.00 0.00 0.00 0.00 0.00 0.00 0.00 0.00 0.00 0.00 0.00 0.00 0.00 0.00 0.00 0.00 0.00 0.00 0.00 0.00 0.00 0.00
0.03 0.02 0.01 0.00 0.00 0.00 0.00 0.00 0.00 0.00 0.00 0.00 0.00 0.00 0.00 0.00 0.00 0.00 0.00 0.00 0.00 0.00 0.00 0.00 0.00 0.00 0.00 0.00 0.00 0.00 0.00 0.00 0.00 0.00 0.00 0.00 0.00 0.00 0.00 0.00 0.00 0.00 0.00 0.00
0.02 0.02 0.01 0.01 0.01 0.01 0.01 0.00 0.00 0.00 0.00 0.00 0.00 0.00 0.00 0.00 0.00 0.00 0.00 0.00 0.00 0.00 0.00 0.00 0.00 0.00 0.00 0.00 0.00 0.00 0.00 0.00 0.00 0.00 0.00 0.00 0.00 0.00 0.00 0.00 0.00 0.00 0.00 0.00
0.01 0.01 0.01 0.01 0.02 0.03 0.01 0.00 0.00 0.00 0.00 0.00 0.00 0.00 0.00 0.00 0.00 0.00 0.00 0.00 0.00 0.00 0.00 0.00 0.00 0.00 0.00 0.00 0.00 0.00 0.00 0.00 0.00 0.00 0.00 0.00 0.00 0.00 0.00 0.00 0.00 0.00 0.00 0.00
0.02 0.02 0.03 0.02 0.02 0.01 0.00 0.00 0.00 0.00 0.00 0.00 0.00 0.00 0.00 0.00 0.00 0.00 0.00 0.00 0.00 0.00 0.00 0.00 0.00 0.00 0.00 0.00 0.00 0.00 0.00 0.00 0.00 0.00 0.00 0.00 0.00 0.00 0.00 0.00 0.00 0.00 0.00 0.00
0.02 0.02 0.03 0.03 0.01 0.00 0.00 0.00 0.00 0.00 0.00 0.00 0.00 0.00 0.00 0.00 0.00 0.00 0.00 0.00 0.00 0.00 0.00 0.00 0.00 0.00 0.00 0.00 0.00 0.00 0.00 0.00 0.00 0.00 0.00 0.00 0.00 0.00 0.00 0.00 0.00 0.00 0.00 0.00
0.05 0.05 0.04 0.02 0.01 0.00 0.00 0.00 0.00 0.00 0.00 0.00 0.00 0.00 0.00 0.00 0.00 0.00 0.00 0.00 0.00 0.00 0.00 0.00 0.00 0.00 0.00 0.00 0.00 0.00 0.00 0.00 0.00 0.00 0.00 0.00 0.00 0.00 0.00 0.00 0.00 0.00 0.00 0.00
0.02 0.03 0.02 0.01 0.01 0.00 0.00 0.00 0.00 0.00 0.00 0.00 0.00 0.00 0.00 0.00 0.00 0.00 0.00 0.00 0.00 0.00 0.00 0.00 0.00 0.00 0.00 0.00 0.00 0.00 0.00 0.00 0.00 0.00 0.00 0.00 0.00 0.00 0.00 0.00 0.00 0.00 0.00 0.00
0.00 0.00 0.00 0.00 0.00 0.00 0.00 0.00 0.00 0.00 0.00 0.00 0.00 0.00 0.00 0.00 0.00 0.00 0.00 0.00 0.00 0.00 0.00 0.00 0.00 0.00 0.00 0.00 0.00 0.00 0.00 0.00 0.00 0.00 0.00 0.00 0.00 0.00 0.00 0.00 0.00 0.00 0.00 0.00
0.00 0.00 0.00 0.00 0.00 0.00 0.00 0.00 0.00 0.00 0.00 0.00 0.00 0.00 0.00 0.00 0.00 0.00 0.00 0.00 0.00 0.00 0.00 0.00 0.00 0.00 0.00 0.00 0.00 0.00 0.00 0.00 0.00 0.00 0.00 0.00 0.00 0.00 0.00 0.00 0.00 0.00 0.00 0.00
0.00 0.00 0.00 0.00 0.00 0.00 0.00 0.00 0.00 0.00 0.00 0.00 0.00 0.00 0.00 0.00 0.00 0.00 0.00 0.00 0.00 0.00 0.00 0.00 0.00 0.00 0.00 0.00 0.00 0.00 0.00 0.00 0.00 0.00 0.00 0.00 0.00 0.00 0.00 0.00 0.00 0.00 0.00 0.00
0.00 0.00 0.00 0.00 0.00 0.00 0.00 0.00 0.00 0.00 0.00 0.00 0.00 0.00 0.00 0.00 0.00 0.00 0.00 0.00 0.00 0.00 0.00 0.00 0.00 0.00 0.00 0.00 0.00 0.00 0.00 0.00 0.00 0.00 0.00 0.00 0.00 0.00 0.00 0.00 0.00 0.00 0.00 0.00
MSLP
1017.15 1017.34 1017.46 1017.59 1017.76 1018.00 1018.33 1018.71 1019.08 1019.37 1019.52 1019.48 1019.22 1018.78 1018.22 1017.61 1017.07 1016.66 1016.44 1016.44 1016.64 1017.01 1017.47 1017.98 1018.48 1018.94 1019.36 1019.74 1020.12 1020.51 1020.93 1021.39 1021.87 1022.36 1022.82 1023.24 1023.60 1023.91 1024.16 1024.38 1024.58 1024.79 1025.02 1025.27
1016.68 1016.83 1016.94 1017.06 1017.27 1017.59 1018.00 1018.49 1018.96 1019.33 1019.53 1019.50 1019.21 1018.70 1018.04 1017.31 1016.63 1016.08 1015.75 1015.65 1015.78 1016.10 1016.54 1017.05 1017.55 1018.02 1018.45 1018.84 1019.22 1019.62 1020.05 1020.52 1021.03 1021.54 1022.05 1022.52 1022.93 1023.28 1023.58 1023.83 1024.06 1024.28 1024.51 1024.77
1016.08 1016.23 1016.36 1016.53 1016.81 1017.21 1017.72 1018.29 1018.84 1019.27 1019.50 1019.46 1019.13 1018.55 1017.79 1016.94 1016.14 1015.47 1015.02 1014.82 1014.87 1015.12 1015.52 1015.99 1016.48 1016.95 1017.38 1017.78 1018.17 1018.58 1019.02 1019.51 1020.03 1020.58 1021.11 1021.62 1022.07 1022.46 1022.79 1023.08 1023.33 1023.57 1023.83 1024.10
1015.35 1015.56 1015.77 1016.04 1016.42 1016.92 1017.52 1018.16 1018.76 1019.20 1019.41 1019.33 1018.94 1018.28 1017.42 1016.48 1015.57 1014.80 1014.24 1013.94 1013.90 1014.08 1014.41 1014.84 1015.30 1015.75 1016.18 1016.59 1016.99 1017.41 1017.88 1018.38 1018.92 1019.49 1020.04 1020.57 1021.05 1021.46 1021.82 1022.13 1022.41 1022.69 1022.97 1023.27
1014.54 1014.87 1015.22 1015.62 1016.13 1016.74 1017.42 1018.10 1018.70 1019.11 1019.26 1019.10 1018.62 1017.87 1016.92 1015.89 1014.89 1014.04 1013.40 1013.02 1012.89 1012.99 1013.26 1013.63 1014.05 1014.49 1014.91 1015.33 1015.75 1016.19 1016.67 1017.19 1017.74 1018.31 1018.87 1019.40 1019.89 1020.32 1020.70 1021.04 1021.36 1021.67 1021.99 1022.34
1013.70 1014.19 1014.71 1015.29 1015.94 1016.66 1017.40 1018.09 1018.65 1018.98 1019.03 1018.75 1018.16 1017.31 1016.28 1015.18 1014.12 1013.21 1012.52 1012.07 1011.88 1011.91 1012.11 1012.43 1012.81 1013.22 1013.63 1014.05 1014.49 1014.95 1015.44 1015.97 1016.52 1017.09 1017.64 1018.16 1018.64 1019.08 1019.48 1019.85 1020.21 1020.58 1020.96 1021.36
1012.85 1013.52 1014.23 1014.99 1015.79 1016.61 1017.39 1018.06 1018.54 1018.76 1018.67 1018.27 1017.56 1016.61 1015.51 1014.37 1013.29 1012.35 1011.64 1011.16 1010.93 1010.90 1011.05 1011.31 1011.65 1012.03 1012.42 1012.84 1013.28 1013.75 1014.25 1014.77 1015.31 1015.86 1016.39 1016.89 1017.37 1017.81 1018.22 1018.63 1019.05 1019.47 1019.93 1020.41
1012.02 1012.85 1013.74 1014.67 1015.61 1016.51 1017.30 1017.93 1018.31 1018.40 1018.17 1017.64 1016.82 1015.81 1014.67 1013.52 1012.45 1011.54 1010.83 1010.36 1010.11 1010.05 1010.15 1010.36 1010.65 1010.98 1011.35 1011.75 1012.18 1012.63 1013.12 1013.62 1014.14 1014.66 1015.16 1015.64 1016.10 1016.55 1016.99 1017.45 1017.92 1018.43 1018.96 1019.53
1011.19 1012.16 1013.19 1014.26 1015.30 1016.26 1017.05 1017.61 1017.90 1017.86 1017.51 1016.86 1015.98 1014.93 1013.80 1012.69 1011.68 1010.83 1010.18 1009.74 1009.49 1009.42 1009.48 1009.64 1009.88 1010.16 1010.48 1010.84 1011.23 1011.65 1012.10 1012.57 1013.04 1013.52 1013.98 1014.44 1014.89 1015.35 1015.83 1016.34 1016.89 1017.48 1018.10 1018.75
1010.38 1011.43 1012.56 1013.72 1014.82 1015.79 1016.56 1017.06 1017.25 1017.11 1016.67 1015.96 1015.05 1014.02 1012.95 1011.94 1011.03 1010.29 1009.73 1009.35 1009.13 1009.05 1009.08 1009.19 1009.36 1009.58 1009.84 1010.14 1010.47 1010.83 1011.22 1011.63 1012.05 1012.47 1012.90 1013.33 1013.78 1014.26 1014.78 1015.35 1015.97 1016.64 1017.36 1018.09
1009.59 1010.67 1011.84 1013.02 1014.14 1015.09 1015.82 1016.26 1016.37 1016.16 1015.67 1014.95 1014.07 1013.12 1012.17 1011.29 1010.53 1009.92 1009.47 1009.17 1009.00 1008.92 1008.93 1008.99 1009.10 1009.25 1009.43 1009.64 1009.90 1010.18 1010.50 1010.84 1011.19 1011.56 1011.94 1012.35 1012.80 1013.30 1013.87 1014.50 1015.20 1015.95 1016.73 1017.54
1008.87 1009.92 1011.07 1012.22 1013.30 1014.21 1014.87 1015.24 1015.29 1015.05 1014.56 1013.87 1013.08 1012.24 1011.43 1010.72 1010.13 1009.67 1009.34 1009.13 1009.01 1008.95 1008.93 1008.95 1009.00 1009.07 1009.18 1009.32 1009.49 1009.70 1009.94 1010.20 1010.49 1010.80 1011.15 1011.54 1011.99 1012.52 1013.12 1013.81 1014.57 1015.38 1016.22 1017.08
1008.26 1009.24 1010.32 1011.40 1012.39 1013.21 1013.79 1014.09 1014.10 1013.84 1013.38 1012.76 1012.07 1011.37 1010.73 1010.19 1009.76 1009.44 1009.23 1009.10 1009.02 1008.98 1008.95 1008.94 1008.94 1008.97 1009.01 1009.09 1009.20 1009.34 1009.51 1009.71 1009.95 1010.22 1010.53 1010.91 1011.37 1011.91 1012.55 1013.28 1014.08 1014.93 1015.81 1016.69
1007.79 1008.68 1009.65 1010.61 1011.49 1012.19 1012.67 1012.90 1012.86 1012.60 1012.17 1011.63 1011.05 1010.50 1010.01 1009.61 1009.32 1009.13 1009.01 1008.94 1008.90 1008.87 1008.84 1008.82 1008.80 1008.80 1008.82 1008.87 1008.95 1009.06 1009.20 1009.37 1009.57 1009.82 1010.12 1010.49 1010.95 1011.51 1012.17 1012.92 1013.75 1014.62 1015.50 1016.38
1007.47 1008.25 1009.09 1009.92 1010.65 1011.22 1011.58 1011.72 1011.64 1011.37 1010.97 1010.51 1010.03 1009.59 1009.22 1008.94 1008.75 1008.63 1008.56 1008.53 1008.51 1008.50 1008.48 1008.46 1008.46 1008.48 1008.52 1008.59 1008.69 1008.81 1008.96 1009.14 1009.34 1009.59 1009.89 1010.27 1010.74 1011.31 1011.98 1012.73 1013.56 1014.42 1015.29 1016.15
1007.26 1007.94 1008.65 1009.32 1009.89 1010.31 1010.55 1010.59 1010.46 1010.18 1009.81 1009.40 1008.99 1008.63 1008.34 1008.13 1007.99 1007.90 1007.85 1007.83 1007.82 1007.81 1007.82 1007.83 1007.88 1007.95 1008.06 1008.20 1008.37 1008.56 1008.77 1008.99 1009.23 1009.51 1009.84 1010.23 1010.71 1011.28 1011.95 1012.69 1013.50 1014.33 1015.17 1016.00
1007.08 1007.66 1008.23 1008.75 1009.16 1009.44 1009.55 1009.50 1009.31 1009.02 1008.67 1008.30 1007.95 1007.64 1007.39 1007.21 1007.08 1006.98 1006.92 1006.88 1006.86 1006.86 1006.89 1006.96 1007.08 1007.25 1007.46 1007.72 1008.00 1008.30 1008.60 1008.91 1009.22 1009.55 1009.91 1010.34 1010.83 1011.40 1012.05 1012.77 1013.54 1014.33 1015.13 1015.90
1006.82 1007.30 1007.74 1008.11 1008.38 1008.52 1008.52 1008.40 1008.18 1007.89 1007.56 1007.23 1006.92 1006.66 1006.43 1006.25 1006.11 1005.99 1005.89 1005.82 1005.78 1005.79 1005.85 1005.98 1006.18 1006.46 1006.80 1007.19 1007.61 1008.03 1008.46 1008.87 1009.26 1009.66 1010.08 1010.53 1011.04 1011.61 1012.24 1012.92 1013.65 1014.39 1015.13 1015.85
1006.38 1006.75 1007.07 1007.31 1007.45 1007.47 1007.40 1007.23 1007.01 1006.74 1006.46 1006.20 1005.96 1005.74 1005.55 1005.38 1005.23 1005.08 1004.95 1004.85 1004.79 1004.80 1004.88 1005.07 1005.36 1005.74 1006.20 1006.72 1007.26 1007.82 1008.36 1008.87 1009.35 1009.82 1010.29 1010.78 1011.29 1011.85 1012.46 1013.11 1013.78 1014.47 1015.15 1015.82
1005.68 1005.95 1006.15 1006.28 1006.31 1006.26 1006.15 1005.98 1005.79 1005.59 1005.41 1005.24 1005.10 1004.97 1004.85 1004.72 1004.58 1004.44 1004.29 1004.17 1004.10 1004.11 1004.21 1004.44 1004.78 1005.24 1005.79 1006.40 1007.05 1007.70 1008.33 1008.92 1009.47 1010.00 1010.50 1011.01 1011.53 1012.08 1012.66 1013.27 1013.90 1014.53 1015.16 1015.78
1004.76 1004.92 1005.02 1005.05 1005.01 1004.92 1004.80 1004.67 1004.56 1004.48 1004.43 1004.41 1004.42 1004.43 1004.42 1004.38 1004.30 1004.18 1004.06 1003.94 1003.87 1003.88 1003.99 1004.23 1004.60 1005.09 1005.68 1006.34 1007.03 1007.73 1008.40 1009.03 1009.61 1010.16 1010.69 1011.20 1011.72 1012.26 1012.81 1013.38 1013.97 1014.55 1015.13 1015.71
1003.73 1003.79 1003.80 1003.75 1003.67 1003.56 1003.47 1003.41 1003.41 1003.48 1003.61 1003.78 1003.97 1004.16 1004.31 1004.40 1004.42 1004.39 1004.31 1004.23 1004.17 1004.18 1004.29 1004.52 1004.87 1005.35 1005.93 1006.57 1007.25 1007.93 1008.59 1009.21 1009.78 1010.32 1010.84 1011.34 1011.85 1012.36 1012.89 1013.43 1013.98 1014.52 1015.06 1015.60
1002.80 1002.78 1002.71 1002.60 1002.48 1002.38 1002.33 1002.36 1002.48 1002.71 1003.02 1003.40 1003.81 1004.20 1004.53 1004.79 1004.95 1005.03 1005.03 1005.00 1004.97 1004.98 1005.07 1005.27 1005.58 1006.00 1006.51 1007.09 1007.69 1008.30 1008.90 1009.46 1009.98 1010.48 1010.96 1011.43 1011.91 1012.40 1012.90 1013.41 1013.93 1014.45 1014.95 1015.46
1002.22 1002.13 1002.00 1001.84 1001.70 1001.60 1001.59 1001.69 1001.93 1002.30 1002.79 1003.36 1003.96 1004.55 1005.07 1005.50 1005.81 1006.01 1006.10 1006.13 1006.13 1006.15 1006.22 1006.38 1006.62 1006.95 1007.36 1007.83 1008.33 1008.83 1009.31 1009.78 1010.22 1010.64 1011.06 1011.49 1011.92 1012.38 1012.86 1013.36 1013.85 1014.34 1014.82 1015.30
1002.21 1002.09 1001.92 1001.73 1001.56 1001.45 1001.45 1001.60 1001.91 1002.38 1002.99 1003.70 1004.45 1005.20 1005.88 1006.45 1006.89 1007.19 1007.38 1007.47 1007.50 1007.53 1007.58 1007.68 1007.84 1008.08 1008.38 1008.72 1009.09 1009.46 1009.82 1010.16 1010.50 1010.83 1011.17 1011.53 1011.93 1012.35 1012.80 1013.27 1013.75 1014.23 1014.69 1015.15
1002.97 1002.85 1002.66 1002.44 1002.23 1002.09 1002.07 1002.22 1002.54 1003.04 1003.70 1004.47 1005.30 1006.13 1006.90 1007.56 1008.08 1008.46 1008.71 1008.84 1008.90 1008.93 1008.96 1009.01 1009.11 1009.26 1009.45 1009.68 1009.91 1010.15 1010.39 1010.61 1010.83 1011.07 1011.32 1011.61 1011.94 1012.32 1012.74 1013.19 1013.65 1014.12 1014.57 1015.02
Thickness
5578 5582 5595 5611 5620 5626 5629 5628 5630 5638 5641 5640 5646 5657 5672 5677 5675 5680 5685 5687 5689 5693 5695 5693 5691 5690 5689 5688 5688 5687 5684 5682 5679 5676 5674 5672 5671 5671 5670 5670 5669 5667 5665 5662
5567 5584 5608 5611 5611 5611 5616 5620 5625 5626 5627 5631 5639 5650 5668 5674 5677 5683 5687 5690 5692 5692 5691 5691 5690 5690 5689 5689 5689 5688 5686 5684 5682 5679 5677 5676 5674 5673 5673 5671 5669 5667 5664 5662
5582 5598 5598 5595 5596 5597 5605 5614 5617 5615 5615 5619 5624 5643 5664 5676 5677 5681 5685 5690 5694 5693 5694 5693 5691 5692 5691 5692 5692 5690 5689 5687 5684 5680 5678 5675 5674 5673 5671 5670 5668 5666 5664 5662
5573 5580 5585 5586 5592 5597 5597 5607 5608 5605 5607 5610 5613 5629 5667 5676 5678 5682 5686 5688 5693 5695 5695 5696 5695 5694 5696 5696 5694 5692 5690 5688 5686 5682 5680 5678 5677 5676 5675 5673 5670 5667 5664 5662
5566 5572 5579 5582 5594 5593 5594 5596 5595 5594 5596 5596 5602 5608 5654 5667 5671 5685 5692 5695 5697 5700 5699 5699 5699 5700 5700 5697 5695 5693 5691 5689 5688 5685 5683 5680 5680 5679 5677 5674 5671 5668 5664 5661
5556 5565 5576 5585 5586 5583 5579 5577 5573 5573 5575 5581 5610 5604 5643 5668 5678 5686 5693 5697 5700 5702 5702 5702 5702 5699 5698 5697 5694 5693 5691 5691 5689 5687 5685 5683 5682 5679 5676 5673 5670 5667 5663 5660
5537 5547 5559 5571 5566 5564 5574 5569 5557 5556 5560 5588 5609 5605 5644 5674 5681 5686 5692 5697 5700 5702 5702 5702 5700 5697 5697 5696 5694 5693 5691 5691 5690 5688 5686 5685 5683 5680 5677 5674 5670 5666 5662 5659
5544 5544 5554 5565 5572 5571 5576 5578 5573 5571 5577 5592 5578 5604 5652 5665 5673 5677 5682 5687 5690 5694 5697 5698 5700 5698 5697 5696 5694 5692 5692 5692 5691 5688 5687 5685 5682 5679 5678 5675 5671 5666 5663 5659
5556 5556 5555 5557 5567 5572 5564 5566 5576 5568 5560 5570 5587 5611 5638 5651 5658 5666 5672 5677 5682 5687 5689 5691 5692 5693 5694 5693 5692 5691 5691 5691 5690 5689 5686 5683 5681 5679 5677 5673 5668 5665 5661 5656
5566 5549 5542 5542 5549 5556 5566 5563 5553 5554 5554 5569 5595 5611 5639 5648 5656 5666 5672 5677 5682 5681 5682 5683 5684 5685 5686 5686 5686 5685 5686 5687 5687 5685 5683 5682 5680 5677 5674 5669 5665 5661 5656 5650
5555 5543 5530 5535 5547 5552 5552 5550 5557 5559 5563 5572 5585 5621 5648 5652 5658 5662 5667 5670 5673 5674 5674 5674 5675 5675 5675 5674 5675 5677 5678 5680 5680 5680 5679 5677 5675 5672 5668 5664 5661 5656 5650 5644
5541 5538 5530 5533 5541 5553 5557 5559 5558 5555 5553 5568 5582 5616 5638 5639 5643 5644 5650 5654 5657 5659 5661 5662 5662 5662 5663 5664 5665 5667 5669 5671 5672 5672 5671 5670 5668 5665 5661 5658 5654 5649 5643 5637
5540 5532 5518 5509 5514 5527 5541 5554 5559 5563 5557 5555 5566 5608 5628 5627 5629 5632 5635 5641 5645 5646 5647 5649 5650 5651 5653 5654 5655 5657 5659 5660 5660 5660 5660 5660 5658 5657 5655 5651 5645 5640 5634 5628
5541 5537 5544 5547 5554 5548 5544 5548 5552 5550 5548 5560 5578 5608 5623 5624 5626 5627 5628 5631 5635 5636 5636 5640 5641 5642 5642 5643 5645 5646 5648 5648 5647 5648 5648 5649 5648 5647 5644 5640 5635 5630 5625 5619
5536 5529 5539 5548 5550 5549 5547 5547 5546 5548 5560 5564 5585 5599 5620 5624 5624 5624 5622 5622 5623 5626 5628 5629 5631 5632 5634 5634 5633 5634 5636 5635 5635 5636 5636 5637 5635 5633 5630 5627 5623 5618 5613 5608
5528 5525 5527 5521 5533 5538 5537 5543 5544 5549 5558 5566 5579 5596 5625 5620 5613 5613 5615 5613 5616 5620 5622 5623 5623 5623 5625 5625 5625 5624 5624 5623 5622 5623 5624 5622 5620 5618 5616 5612 5608 5604 5599 5593
5521 5517 5515 5514 5514 5516 5521 5547 5551 5554 5563 5568 5573 5601 5611 5602 5601 5605 5607 5607 5609 5614 5615 5616 5617 5619 5619 5619 5617 5615 5614 5611 5609 5610 5608 5606 5604 5602 5600 5597 5593 5589 5585 5579
5521 5511 5509 5502 5497 5506 5553 5566 5561 5560 5567 5571 5578 5595 5599 5597 5595 5594 5598 5600 5604 5607 5608 5610 5611 5613 5613 5610 5607 5604 5601 5598 5596 5596 5594 5591 5589 5587 5584 5581 5578 5574 5569 5565
5519 5510 5495 5499 5511 5528 5548 5552 5559 5556 5564 5575 5576 5585 5587 5581 5575 5587 5594 5593 5597 5600 5601 5603 5603 5603 5603 5599 5596 5591 5588 5585 5584 5583 5581 5578 5576 5573 5570 5567 5563 5559 5555 5550
5505 5512 5501 5499 5514 5528 5561 5557 5553 5548 5552 5577 5573 5576 5576 5567 5566 5592 5595 5586 5587 5589 5589 5589 5589 5588 5588 5586 5582 5578 5575 5573 5573 5571 5568 5565 5563 5560 5558 5554 5549 5544 5540 5536
5491 5493 5502 5507 5519 5537 5548 5541 5544 5539 5564 5569 5568 5572 5570 5566 5575 5584 5578 5573 5572 5573 5573 5574 5575 5574 5574 5570 5567 5565 5563 5562 5560 5555 5552 5550 5547 5545 5543 5538 5534 5530 5524 5519
5503 5502 5504 5505 5513 5534 5532 5532 5547 5559 5559 5557 5558 5561 5562 5564 5565 5562 5559 5557 5555 5556 5556 5556 5558 5558 5556 5552 5551 5551 5549 5546 5542 5540 5537 5534 5531 5529 5526 5523 5518 5514 5509 5504
5512 5521 5522 5525 5535 5534 5531 5539 5544 5545 5546 5546 5548 5548 5549 5548 5548 5546 5543 5540 5537 5537 5538 5537 5537 5536 5535 5534 5535 5535 5532 5528 5526 5524 5522 5518 5515 5513 5510 5507 5503 5498 5494 5491
5493 5498 5503 5503 5510 5513 5513 5516 5520 5524 5529 5527 5528 5530 5533 5534 5532 5528 5523 5519 5519 5516 5516 5516 5518 5518 5516 5515 5515 5516 5513 5512 5510 5508 5506 5502 5499 5497 5494 5492 5489 5486 5483 5479
5486 5487 5494 5495 5492 5493 5496 5502 5506 5505 5506 5507 5507 5508 5512 5515 5513 5510 5504 5500 5499 5497 5497 5499 5501 5501 5499 5498 5498 5496 5496 5495 5494 5492 5489 5486 5484 5482 5479 5477 5475 5473 5471 5470
5457 5471 5492 5500 5490 5498 5496 5489 5489 5491 5490 5490 5490 5487 5486 5490 5491 5487 5483 5481 5480 5480 5480 5481 5482 5481 5480 5480 5479 5478 5478 5479 5478 5476 5473 5471 5469 5466 5464 5461 5457 5455 5453 5451